This is the latest recevied weather packets stored in our database for station/object YO6FNF-10. If no packets are shown the sender has not sent any weather packets the latest 10 day(s).
| Time | Temp. | Humidity | Pressure | Rain* | Wind** | Luminosity | Snow |
|---|---|---|---|---|---|---|---|
| 1778122952 | 8.89° C | 70% | 1017.8 hPa | - | - | - | - |
| 1778122052 | 8.89° C | 71% | 1017.5 hPa | - | - | - | - |
| 1778121151 | 8.89° C | 69% | 1017.5 hPa | - | - | - | - |
| 1778120251 | 8.89° C | 70% | 1017.2 hPa | - | - | - | - |
| 1778119351 | 9.44° C | 68% | 1017.3 hPa | - | - | - | - |
| 1778118451 | 9.44° C | 68% | 1017.3 hPa | - | - | - | - |
| 1778117551 | 10° C | 69% | 1017.4 hPa | - | - | - | - |
| 1778116651 | 10° C | 68% | 1017.3 hPa | - | - | - | - |
| 1778115750 | 10° C | 70% | 1017.2 hPa | - | - | - | - |
| 1778114850 | 10.56° C | 69% | 1017.2 hPa | - | - | - | - |
| 1778113949 | 11.11° C | 68% | 1017 hPa | - | - | - | - |
| 1778113049 | 11.11° C | 67% | 1017 hPa | - | - | - | - |
| 1778112149 | 11.11° C | 67% | 1017 hPa | - | - | - | - |
| 1778111249 | 11.67° C | 66% | 1016.9 hPa | - | - | - | - |
| 1778110349 | 11.67° C | 66% | 1017 hPa | - | - | - | - |
| 1778109448 | 12.22° C | 65% | 1016.9 hPa | - | - | - | - |
| 1778108548 | 12.78° C | 62% | 1016.8 hPa | - | - | - | - |
| 1778107648 | 13.33° C | 61% | 1016.7 hPa | - | - | - | - |
| 1778106748 | 13.33° C | 60% | 1016.7 hPa | - | - | - | - |
| 1778105848 | 13.89° C | 60% | 1016.8 hPa | - | - | - | - |
| 1778104948 | 13.89° C | 60% | 1016.7 hPa | - | - | - | - |
| 1778104047 | 14.44° C | 60% | 1016.6 hPa | - | - | - | - |
| 1778103147 | 14.44° C | 60% | 1016.5 hPa | - | - | - | - |
| 1778102247 | 14.44° C | 60% | 1016.4 hPa | - | - | - | - |
| 1778101347 | 14.44° C | 60% | 1016.3 hPa | - | - | - | - |
* Rain since midnight (hover to see other rain measurements)
** Current wind speed in m/s (hover to see current wind gust speed)